GEFSSGP_con_cape1000_000.txt.gz
Probability
100 100 90 65 0 0 0 0 0 0 0 0 0 0 0 0 0 0 0 10 3 84 100 100 100 100 100 100 100 100 100 100 100 100 100 100 100 77 52 45 81 94 97 97 100 100 100 100 100
100 100 19 0 0 0 0 0 0 0 0 0 0 0 0 0 0 0 0 45 29 97 100 100 100 100 100 100 100 100 100 100 100 100 100 100 100 97 94 94 84 94 94 94 97 97 100 100 100
100 100 0 0 0 0 0 0 0 0 0 0 0 0 0 0 0 0 0 71 90 100 100 100 100 100 100 100 100 100 100 100 100 100 100 100 100 100 90 74 87 97 97 90 87 90 90 90 90
100 6 0 0 0 0 0 0 0 0 0 0 0 0 0 0 0 0 58 94 100 100 100 100 100 100 100 100 100 100 100 100 97 100 100 100 100 100 71 26 94 97 97 90 90 87 90 58 68
39 0 0 0 0 0 0 0 0 0 0 0 0 0 0 0 0 3 58 90 100 100 100 100 100 100 100 100 100 100 100 100 90 100 100 97 100 100 84 16 52 97 97 97 90 87 74 52 42
6 0 0 0 0 0 0 0 0 0 0 0 0 0 0 0 0 29 45 71 100 100 100 100 100 100 100 100 100 100 100 100 77 97 97 100 100 100 87 26 23 77 71 87 87 90 94 81 42
0 0 0 0 0 0 0 0 0 0 0 0 0 0 0 0 0 13 39 97 94 100 100 100 100 100 100 100 100 100 100 100 100 100 100 100 100 100 97 13 10 68 97 97 90 90 90 42 6
0 0 0 0 0 0 0 0 0 0 0 0 0 0 0 0 0 19 71 81 65 84 100 100 100 100 100 100 100 100 100 100 100 100 100 100 97 100 90 0 0 90 100 97 100 97 65 0 0
0 0 0 0 0 0 0 0 0 0 0 0 0 0 0 0 3 48 0 3 16 74 74 74 71 87 94 100 100 100 100 100 100 100 100 97 84 97 10 0 0 77 97 100 94 48 3 0 0
0 0 0 0 0 0 0 0 0 0 0 0 0 0 0 0 13 6 0 0 0 3 6 6 26 39 65 100 100 90 100 100 97 97 97 32 39 6 0 0 23 90 97 87 45 10 3 0 0
0 0 0 0 0 0 0 0 0 0 0 0 0 0 0 0 3 0 0 0 0 0 10 0 0 6 39 58 32 32 68 65 58 55 32 3 3 3 0 0 0 32 90 55 26 3 0 0 0
0 0 0 0 0 0 0 0 0 0 0 0 0 0 0 0 0 0 0 0 0 0 0 0 0 3 3 10 23 26 35 16 3 6 6 0 0 0 0 0 0 6 32 6 3 0 0 0 0
0 0 0 0 0 0 0 0 0 0 0 0 0 0 0 0 0 0 0 0 0 0 0 0 0 0 3 3 3 6 6 6 0 3 3 0 0 0 0 0 0 0 0 0 0 0 0 0 0
0 0 10 0 0 0 0 0 0 0 0 0 0 0 0 0 0 0 0 0 0 0 0 0 0 3 3 3 3 3 3 3 0 0 3 0 0 0 0 0 0 0 0 0 0 0 0 0 0
0 0 0 0 0 0 0 0 0 0 0 0 0 0 0 0 0 0 0 0 0 0 0 0 3 3 3 3 3 3 3 0 0 3 6 0 0 0 0 0 0 0 0 0 0 0 0 0 0
0 0 0 0 0 0 0 0 0 0 0 0 0 0 0 0 0 0 0 0 0 0 0 0 3 3 3 3 3 0 0 0 0 3 6 0 0 0 0 0 0 0 0 0 0 0 0 0 0
0 0 0 0 0 0 0 0 0 0 0 0 0 0 0 0 0 0 0 0 3 10 3 0 0 3 0 3 3 0 0 0 0 0 0 0 0 0 0 0 0 0 0 0 0 0 0 0 0
0 0 0 0 0 0 0 0 0 0 0 0 0 0 0 0 0 0 0 0 48 71 35 3 0 3 0 0 3 0 0 0 0 0 3 0 0 0 0 0 0 0 0 0 0 0 0 0 0
0 0 0 0 0 0 0 0 0 0 0 0 0 0 0 0 0 0 0 6 81 81 71 52 13 0 0 0 0 0 0 0 0 0 3 0 0 0 0 0 0 0 0 0 0 0 0 0 0
0 0 0 0 0 0 0 0 0 0 0 0 0 0 0 0 0 0 0 0 84 81 84 77 65 29 13 3 0 0 0 0 0 0 0 0 0 0 0 0 0 0 0 0 0 0 0 0 0
0 0 0 0 0 0 0 0 0 0 0 0 0 0 0 0 0 13 0 3 42 71 90 84 71 48 39 16 0 0 0 0 0 0 0 0 0 0 0 0 0 0 0 0 0 0 0 0 0
0 0 0 0 0 0 0 0 0 0 0 0 0 0 0 0 3 52 29 23 32 71 94 90 61 48 45 35 10 0 0 0 0 0 0 0 0 0 0 0 0 0 0 0 0 0 0 0 0
0 0 0 0 0 0 0 0 0 0 0 0 0 0 0 0 0 32 26 29 26 48 68 65 52 68 81 77 55 6 0 0 0 0 0 0 0 0 0 0 0 0 0 0 0 0 0 0 0
0 0 0 0 0 0 0 0 0 0 0 0 0 0 0 0 0 0 3 26 55 87 58 55 87 90 94 94 61 13 6 0 0 0 0 0 0 0 0 0 0 0 0 0 0 0 0 0 0
0 0 0 0 0 0 0 0 0 0 0 0 0 0 0 0 0 0 6 6 48 71 81 84 97 97 97 97 61 16 16 3 0 0 0 0 0 0 0 0 0 0 0 0 0 0 0 0 0
0 0 0 0 0 0 0 0 0 0 0 0 0 0 0 0 0 0 0 0 29 58 81 97 100 100 97 94 90 16 0 0 0 0 0 0 0 0 0 0 0 0 0 0 0 0 0 0 0
0 0 0 0 0 0 0 0 0 0 0 0 0 0 0 0 0 0 0 0 19 61 71 87 97 94 55 19 23 13 0 0 0 0 0 0 0 0 0 0 0 0 0 0 0 0 0 0 0
0 0 0 0 0 0 0 0 0 0 0 0 0 0 0 0 0 0 0 0 0 16 35 77 94 84 65 48 19 0 0 0 0 0 0 0 0 0 0 0 0 0 0 0 0 0 0 0 0
0 0 0 0 0 0 0 0 0 0 0 0 0 0 0 0 0 0 0 0 0 0 45 74 84 48 13 16 0 0 0 0 0 0 0 0 0 0 0 0 0 0 0 0 0 0 0 0 0
0 0 0 0 0 0 0 0 0 0 0 0 0 0 0 0 0 0 0 0 0 0 23 77 90 68 39 32 13 0 0 0 0 0 0 0 0 0 0 0 0 0 0 0 0 0 0 0 0

GEFSSGP_con_cape1000_006.txt.gz
Probability
100 97 29 0 0 0 0 0 0 0 0 0 0 0 0 0 0 0 0 0 0 0 94 100 100 100 100 100 100 100 100 100 100 100 100 100 97 97 97 100 97 97 97 97 100 100 100 100 100
100 84 0 0 0 0 0 0 0 0 0 0 0 0 0 0 0 0 0 0 0 16 100 100 100 100 100 100 100 100 100 100 100 100 100 97 81 84 100 97 97 94 94 94 97 100 100 100 100
100 16 0 0 0 0 0 0 0 0 0 0 0 0 0 0 0 0 0 0 3 42 100 100 100 100 100 100 100 100 100 100 100 100 100 100 100 100 94 94 90 84 87 90 97 100 100 100 100
6 0 0 0 0 0 0 0 0 0 0 0 0 0 0 0 0 0 0 0 10 87 100 100 100 100 100 100 100 100 100 100 100 100 100 100 100 100 90 94 94 84 81 58 87 90 97 100 100
0 0 0 0 0 0 0 0 0 0 0 0 0 0 0 0 0 0 0 0 26 94 100 100 100 100 100 100 100 100 100 100 100 100 100 100 100 100 74 100 94 90 74 55 68 39 48 77 100
0 0 0 0 0 0 0 0 0 0 0 0 0 0 0 0 6 13 10 6 32 74 100 100 100 100 100 100 100 100 100 100 100 100 100 100 100 94 65 65 87 87 65 42 58 42 0 0 35
0 0 0 0 0 0 0 0 0 0 0 0 0 0 0 0 0 19 35 23 3 29 77 100 100 100 100 100 100 100 100 100 100 100 100 100 100 100 68 35 39 32 23 10 29 32 0 0 0
0 0 0 0 0 0 0 0 0 0 0 0 0 0 0 0 0 0 6 10 29 39 65 87 100 100 100 100 100 100 100 100 100 100 100 100 100 100 55 6 16 26 26 6 13 3 0 0 3
0 0 0 0 0 0 0 0 0 0 0 0 0 0 0 0 0 0 0 3 19 39 52 71 90 100 100 100 100 100 100 100 100 100 100 100 58 32 3 0 32 74 29 3 3 0 0 3 23
0 0 0 0 0 0 0 0 0 0 0 0 0 0 0 0 0 0 0 0 0 23 52 23 16 55 77 100 100 97 90 97 68 23 45 3 0 0 0 0 26 39 16 3 0 0 0 0 0
0 0 0 0 0 0 0 0 0 0 0 0 0 0 0 0 0 0 0 0 0 0 32 19 0 10 19 52 48 23 35 26 3 0 0 0 0 0 0 0 0 0 0 0 0 0 0 0 0
0 0 0 0 0 0 0 0 0 0 0 0 0 0 0 0 0 0 0 0 0 0 6 13 0 3 6 10 3 3 10 10 3 3 0 0 0 0 0 0 0 0 0 0 0 0 0 0 0
0 0 0 0 0 0 0 0 0 0 0 0 0 0 0 0 0 0 0 0 0 0 0 3 3 0 0 0 3 3 3 3 3 3 0 0 0 0 0 0 0 0 0 0 0 0 0 0 0
0 0 0 0 0 0 0 0 0 0 0 0 0 0 0 0 0 0 0 0 0 0 0 0 0 0 0 0 0 0 0 0 0 0 0 0 0 0 0 0 0 0 0 0 0 0 0 0 0
0 0 0 0 0 0 0 0 0 0 0 0 0 0 0 0 0 3 0 0 0 0 0 0 0 0 0 0 0 0 0 0 0 0 0 0 0 0 0 0 0 0 0 0 0 0 0 0 0
0 0 0 0 0 0 0 0 0 0 0 0 0 0 0 0 0 0 0 0 0 0 0 0 0 0 0 0 0 0 0 0 0 0 0 0 0 0 0 0 0 0 0 0 0 0 0 0 0
0 0 0 0 0 0 0 0 0 0 0 0 0 0 0 0 0 0 0 0 0 0 0 0 0 0 3 0 0 0 0 0 0 0 0 0 0 0 0 0 0 0 0 0 0 0 0 0 0
0 0 0 0 0 0 0 0 0 0 0 0 0 0 0 0 0 0 0 0 0 0 0 0 0 0 0 0 0 0 0 0 0 0 0 0 0 0 0 0 0 0 0 0 0 0 0 0 0
0 0 0 0 0 0 0 0 0 0 0 0 0 0 0 0 0 0 0 0 0 0 0 0 0 0 0 0 0 0 0 0 0 0 0 0 0 0 0 0 0 0 0 0 0 0 0 0 0
0 0 0 0 0 0 0 0 0 0 0 0 0 0 0 0 0 0 0 0 0 0 0 0 0 0 0 0 0 0 0 0 0 0 0 0 0 0 0 0 0 0 0 0 0 0 0 0 0
0 0 0 0 0 0 0 0 0 0 0 0 0 0 0 0 0 0 0 0 0 0 0 0 0 0 0 0 0 0 0 0 0 0 0 0 0 0 0 0 0 0 0 0 0 0 0 0 0
0 0 0 0 0 0 0 0 0 0 0 0 0 0 0 0 0 0 0 0 0 3 3 0 0 0 0 0 0 0 0 0 0 0 0 0 0 0 0 0 0 0 0 0 0 0 0 0 0
0 0 0 0 0 0 0 0 0 0 0 0 0 0 0 0 0 0 3 13 39 42 23 6 0 0 0 0 0 0 0 0 0 0 0 0 0 0 0 0 0 0 0 0 0 0 0 0 0
0 0 0 0 0 0 0 0 0 0 0 0 0 0 0 0 0 0 0 3 23 16 10 3 0 0 0 0 0 0 0 0 0 0 0 0 0 0 0 0 0 0 0 0 0 0 0 0 0
0 0 0 0 0 0 0 0 0 0 0 0 0 0 0 0 0 0 0 0 0 0 3 0 0 0 0 0 0 0 0 0 0 0 0 0 0 0 0 0 0 0 0 0 0 0 0 0 0
0 0 0 0 0 0 0 0 0 0 0 0 0 0 0 0 0 0 0 0 0 0 0 0 0 0 0 0 0 0 0 0 0 0 0 0 0 0 0 0 0 0 0 0 0 0 0 0 0
0 0 0 0 0 0 0 0 0 0 0 0 0 0 0 0 0 0 0 0 0 0 0 0 3 0 0 0 0 0 0 0 0 0 0 0 0 0 0 0 0 0 0 0 0 0 0 0 0
0 0 0 0 0 0 0 0 0 0 0 0 0 0 0 0 0 0 0 0 0 0 0 0 0 0 0 0 0 0 0 0 0 0 0 0 0 0 0 0 0 0 0 0 0 0 0 0 0
0 0 0 0 0 0 0 0 0 0 0 0 0 0 0 0 0 0 0 0 0 0 0 0 0 0 0 0 0 0 0 0 0 0 0 0 0 0 0 0 0 0 0 0 0 0 0 0 0
0 0 0 0 0 0 0 0 0 0 0 0 0 0 0 0 0 0 0 0 0 0 0 0 0 0 0 0 0 0 0 0 0 0 0 0 0 0 0 0 0 0 0 0 0 0 0 0 0

GEFSSGP_con_cape1000_012.txt.gz
Probability
100 100 100 94 0 0 0 0 0 0 0 0 0 0 0 0 0 0 19 0 0 16 100 100 100 100 100 100 100 100 100 100 100 100 100 100 97 74 81 87 94 94 97 100 100 100 100 100 100
100 100 39 0 0 0 0 0 0 0 0 0 0 0 0 0 0 0 0 0 0 13 100 100 100 100 100 100 100 100 100 100 100 100 100 100 97 90 90 87 90 94 94 94 100 100 100 100 100
100 87 3 0 0 0 0 0 0 0 0 0 0 0 0 0 0 0 0 0 0 6 90 100 100 100 100 100 100 100 100 100 100 100 100 94 94 77 81 90 90 90 97 97 97 97 97 97 94
97 13 0 0 0 0 0 0 0 0 0 0 0 0 0 0 0 0 0 0 0 0 19 100 100 100 100 100 100 100 100 100 100 100 100 100 97 77 74 87 87 90 90 97 100 100 100 97 97
23 0 0 0 0 0 0 0 0 0 0 0 0 0 0 0 0 3 3 3 0 0 16 97 100 100 100 100 100 100 100 100 100 100 100 100 94 84 87 87 87 87 81 71 81 84 81 87 100
42 0 0 0 0 0 0 0 0 0 0 0 0 0 0 3 0 3 3 3 3 3 10 97 100 100 100 100 100 100 100 100 100 100 100 100 94 87 100 94 90 90 71 35 23 10 10 29 81
16 0 0 0 0 0 0 0 0 0 0 0 0 0 0 6 0 6 0 0 0 0 10 77 100 100 100 100 100 100 100 100 100 100 100 100 100 84 81 87 84 61 32 6 0 0 0 6 32
0 0 0 0 0 0 0 0 0 0 0 0 0 0 0 6 10 6 0 0 0 0 3 23 65 77 100 100 100 100 100 100 100 100 100 100 97 61 32 48 35 16 3 3 0 0 3 19 58
0 0 0 0 0 0 0 0 0 0 0 0 0 0 0 6 10 13 6 0 0 0 6 13 23 58 97 100 94 100 100 100 100 100 100 100 100 68 32 3 13 0 0 0 0 0 6 32 84
10 0 0 0 0 0 0 0 0 0 0 0 0 0 0 29 42 23 6 3 0 0 0 10 26 45 84 94 94 97 84 100 100 100 100 100 77 52 0 0 19 10 0 0 0 0 0 0 0
3 0 0 0 0 0 0 0 0 0 0 0 0 0 19 29 39 32 10 3 0 0 3 10 48 35 81 100 100 100 100 100 100 100 100 94 19 13 0 0 32 23 0 0 0 0 0 0 0
0 0 0 0 0 0 0 0 0 0 0 0 0 0 16 19 26 26 10 3 6 6 10 35 45 58 84 100 100 100 100 100 100 97 48 39 26 6 0 0 3 6 0 0 0 0 0 0 0
0 0 0 0 0 0 0 0 0 0 0 0 0 0 3 16 3 6 0 3 6 13 29 32 45 42 81 100 100 100 100 100 97 100 23 13 10 3 0 0 0 0 0 0 0 0 0 0 0
0 0 0 0 0 0 0 0 0 0 0 0 0 0 3 10 6 0 0 0 6 16 26 32 55 39 71 100 100 100 100 100 84 90 29 0 3 3 0 0 0 0 0 0 0 0 0 0 0
0 0 0 0 0 0 0 0 0 0 0 0 0 0 0 0 10 6 0 3 3 13 16 26 74 58 65 74 84 94 100 94 77 71 13 0 0 0 0 0 0 0 0 0 0 0 0 0 0
0 0 0 0 0 0 0 0 0 0 0 0 0 0 0 0 0 0 3 6 13 32 26 39 94 81 74 87 100 97 97 94 94 84 35 0 0 0 0 0 0 0 0 0 0 0 0 0 0
0 0 0 0 0 0 0 0 0 0 0 0 0 0 0 0 0 0 0 0 6 48 68 71 97 97 100 100 100 100 100 100 97 90 42 0 0 3 16 10 0 0 0 0 0 0 0 0 0
0 0 0 0 0 0 0 0 0 0 0 0 0 0 0 0 0 0 0 0 0 13 61 90 100 100 100 100 100 100 100 100 100 97 94 42 58 35 45 71 0 0 0 3 0 0 0 0 0
0 0 0 0 0 0 0 0 0 0 0 0 0 0 0 0 0 0 0 0 0 0 6 52 90 100 100 100 100 100 100 100 100 100 100 94 81 58 55 65 32 26 26 16 0 13 0 0 0
0 0 0 0 0 0 0 0 0 0 0 0 0 0 0 0 0 0 0 3 10 26 10 6 48 97 100 100 100 100 100 100 100 100 97 100 84 65 6 39 74 65 68 39 23 52 68 16 0
0 0 0 0 0 0 0 0 0 0 0 0 0 0 0 0 0 0 3 13 42 65 55 16 16 97 100 100 100 90 97 100 94 97 97 87 77 65 58 55 71 68 68 97 81 32 19 58 3
0 0 0 0 0 0 0 0 0 0 0 0 0 0 0 0 0 0 0 6 32 65 87 58 35 87 97 77 65 68 81 71 61 68 81 81 68 65 81 65 61 26 52 48 13 6 39 42 10
0 0 0 0 0 0 0 0 0 0 0 0 0 0 0 0 0 0 0 3 23 45 81 97 84 94 74 55 42 32 23 19 35 48 48 58 81 74 68 52 55 23 23 3 3 3 16 32 42
0 0 0 0 0 0 0 0 0 0 0 0 0 0 0 0 0 0 0 0 10 29 58 87 87 71 29 10 3 3 3 10 6 13 23 39 55 68 45 39 35 6 3 3 3 10 3 10 3
0 0 0 0 0 0 0 0 0 0 0 0 0 0 0 0 0 0 0 0 0 3 19 55 58 26 3 3 0 0 0 0 0 6 13 13 19 58 52 10 13 13 3 6 3 3 0 0 0
0 0 0 0 0 0 0 0 0 0 0 0 0 0 0 0 0 0 0 0 0 0 0 3 6 10 0 0 0 0 0 0 0 0 3 13 23 45 19 10 6 3 3 0 0 3 0 0 0
0 0 0 0 0 0 0 0 0 0 0 0 0 0 0 0 0 0 0 0 0 0 0 0 3 0 0 0 0 0 0 0 0 0 0 6 6 0 0 0 3 3 0 0 0 0 0 0 0
0 0 0 0 0 0 0 0 0 0 0 0 0 0 0 0 0 0 0 0 0 0 0 0 0 0 0 0 0 0 0 0 0 0 0 0 3 0 0 0 0 0 0 0 0 0 0 0 0
0 0 0 0 0 0 0 0 0 0 0 0 0 0 0 0 0 0 0 0 0 0 0 0 0 0 0 0 0 0 0 0 0 0 0 0 0 0 0 0 0 0 0 0 0 0 0 0 0
0 0 0 0 0 0 0 0 0 0 0 0 0 0 0 0 0 0 0 0 0 0 0 0 0 0 0 0 0 0 0 0 0 0 0 0 0 0 0 0 0 0 0 0 0 0 0 0 0

GEFSSGP_con_cape1000_018.txt.gz
Probability
100 100 100 100 100 55 0 0 0 0 0 0 0 0 0 0 0 68 55 23 97 97 97 100 100 100 100 100 100 100 100 100 100 100 100 94 71 87 94 94 100 100 100 100 100 100 100 100 100
100 100 100 100 94 0 0 0 0 0 0 0 0 0 0 0 0 0 0 35 97 97 97 100 100 100 100 100 100 100 100 100 100 100 100 84 81 81 87 87 97 100 100 97 97 100 100 100 100
100 100 100 100 3 0 0 0 0 0 0 0 0 0 0 0 0 0 0 6 97 97 87 100 100 100 100 100 100 100 100 100 100 100 94 87 87 81 84 87 100 97 100 100 100 100 97 100 100
100 100 100 68 0 0 0 0 0 0 0 0 0 0 0 0 0 0 0 3 65 94 94 100 100 100 100 100 100 100 100 100 100 87 84 77 68 71 74 81 90 94 97 100 100 100 100 97 100
100 100 90 3 0 0 0 0 0 0 0 0 0 0 3 0 0 0 0 0 35 94 94 97 100 100 100 100 100 100 100 100 100 97 90 81 71 61 77 81 74 77 74 74 87 90 97 100 97
100 100 13 0 0 0 0 0 0 0 0 0 0 0 3 0 0 0 0 0 6 94 100 100 100 100 100 100 100 100 100 100 100 100 100 94 77 68 84 87 71 45 13 10 23 35 71 97 100
100 100 19 0 0 0 0 0 0 0 0 0 0 0 0 0 0 0 0 0 0 26 100 97 100 100 100 100 100 100 100 100 100 100 100 94 84 94 97 90 74 35 0 0 0 3 13 65 84
100 100 0 0 0 0 0 0 0 0 0 0 0 0 0 0 0 0 0 0 0 3 84 90 84 94 97 100 100 100 100 100 100 100 100 100 94 84 87 87 68 13 0 0 0 0 6 42 71
48 61 0 3 16 0 0 0 0 0 0 0 0 0 0 0 0 0 0 0 0 0 19 90 90 94 90 84 100 100 100 100 100 100 100 100 55 29 58 71 42 3 3 0 0 0 10 26 45
35 61 0 3 6 0 0 0 0 0 0 0 0 0 0 0 0 0 0 0 0 0 0 26 77 97 97 97 100 100 94 100 100 97 100 100 77 32 10 45 32 6 3 0 0 0 3 3 0
3 6 0 0 0 0 0 0 0 0 0 0 0 0 3 0 0 0 0 0 0 0 3 10 29 71 97 100 97 87 81 97 97 100 97 94 61 6 0 0 3 0 0 0 0 0 0 0 0
0 3 0 0 0 0 0 0 0 0 0 0 0 0 0 0 0 0 0 0 0 0 3 3 13 35 77 94 100 100 87 94 87 97 100 87 61 29 0 0 0 3 0 0 0 0 0 0 0
0 0 0 0 0 0 0 0 0 0 0 0 0 0 0 0 0 0 0 0 0 0 3 0 10 16 45 100 100 97 97 74 55 87 97 74 61 35 0 0 3 10 0 0 0 0 0 0 0
0 0 0 0 0 0 0 0 0 0 0 0 0 0 0 0 0 0 0 0 0 0 0 3 0 13 52 100 100 97 97 94 65 71 84 42 16 13 0 0 0 0 0 0 0 0 0 0 0
0 0 0 0 0 0 0 0 0 0 0 0 0 0 0 0 3 0 0 0 0 0 0 3 3 3 16 55 77 81 97 87 77 52 39 6 0 0 0 0 0 0 0 0 0 0 0 0 0
0 0 0 0 0 0 0 0 0 0 0 0 0 0 0 0 0 0 3 3 0 0 0 0 3 3 3 13 58 48 55 84 94 68 16 0 0 0 0 0 0 0 0 0 0 0 0 0 0
0 0 0 0 0 0 0 0 0 0 0 0 0 0 0 0 0 0 0 0 0 3 3 0 3 6 10 10 65 81 55 90 90 58 16 3 0 0 0 0 0 0 0 0 0 0 0 0 0
0 0 0 0 0 0 0 0 0 0 0 0 0 0 0 0 0 0 0 3 6 6 10 6 6 13 19 68 65 94 90 87 84 71 71 32 23 3 13 3 0 0 3 0 0 0 0 0 0
0 0 0 0 0 0 0 0 0 0 0 0 0 0 0 0 0 0 0 0 6 10 13 13 23 35 55 94 100 97 100 100 97 97 87 77 42 29 29 3 6 6 6 0 0 0 0 0 0
0 0 0 0 0 0 0 0 0 0 0 0 0 0 0 0 0 0 0 3 13 19 32 29 13 19 45 87 100 100 100 100 100 100 100 90 61 42 23 16 23 10 0 0 0 0 0 0 0
0 0 0 0 0 0 0 0 0 0 0 0 0 0 0 0 0 0 0 0 3 10 16 32 52 52 65 81 94 97 94 100 97 97 84 77 61 29 26 16 10 3 10 0 0 0 3 0 0
0 0 0 0 0 0 0 0 0 0 0 0 0 0 0 0 0 0 0 0 0 3 13 19 48 71 87 90 97 94 77 52 55 58 55 48 39 29 32 13 10 3 3 0 0 0 0 0 0
0 0 0 0 0 0 0 0 0 0 0 0 0 0 0 0 0 0 0 0 0 0 6 10 29 61 84 87 87 81 61 35 35 29 29 23 19 16 16 6 0 0 0 3 0 0 0 0 0
0 0 0 0 0 0 0 0 0 0 0 0 0 0 0 0 0 0 0 0 3 0 3 3 23 39 61 81 77 58 35 26 19 10 10 10 10 6 3 3 0 0 0 0 0 0 0 0 0
0 0 0 0 0 0 0 0 0 0 0 0 0 0 0 0 0 0 0 0 0 0 0 0 6 16 29 32 23 16 13 10 3 3 3 0 0 0 3 0 0 0 0 0 0 0 0 0 0
0 0 0 0 0 0 0 0 0 0 0 0 0 0 0 0 0 0 0 0 0 0 0 0 3 3 3 6 6 3 3 0 0 0 0 0 0 0 0 0 0 0 0 0 0 0 0 0 0
0 0 0 0 0 0 0 0 0 0 0 0 0 0 0 0 0 0 0 0 0 0 0 0 0 0 0 3 3 3 3 0 0 0 0 0 0 0 0 0 0 0 0 0 0 0 0 0 0
0 0 0 0 0 0 0 0 0 0 0 0 0 0 0 0 0 0 0 0 0 0 0 0 0 0 0 0 0 0 0 0 0 0 0 0 0 0 0 0 0 0 0 0 0 0 0 0 0
0 0 0 0 0 0 0 0 0 0 0 0 0 0 0 0 0 0 0 0 0 0 0 0 0 0 0 0 0 0 0 0 0 0 0 0 0 0 0 0 0 0 0 0 0 0 0 0 0
0 0 0 0 0 0 0 0 0 0 0 0 0 0 0 0 0 0 0 0 0 0 0 0 0 0 0 0 0 0 0 0 0 0 0 0 0 0 0 0 0 0 0 0 0 0 0 0 0

GEFSSGP_con_cape1000_024.txt.gz
Probability
100 100 100 97 0 0 0 0 0 0 0 0 0 0 0 0 0 0 0 35 3 48 90 100 100 100 100 100 100 100 100 100 100 100 97 97 97 100 100 100 100 100 100 100 100 100 97 100 100
100 100 97 13 0 0 0 0 0 0 0 0 0 0 0 0 0 0 32 32 23 71 97 100 100 100 100 100 100 100 100 100 100 100 100 97 97 100 100 100 100 100 100 100 100 100 97 100 94
100 100 61 6 0 0 0 0 0 0 0 0 0 0 0 0 0 0 45 42 35 81 97 100 100 100 100 100 100 100 100 100 100 100 100 97 97 97 94 100 100 97 97 90 94 97 100 100 97
94 58 3 0 0 0 0 0 0 0 0 0 0 0 0 0 0 29 68 58 52 77 97 100 100 100 100 100 100 100 100 100 100 100 100 100 97 97 97 97 97 97 87 84 90 94 94 100 100
48 10 0 0 0 0 0 0 0 0 0 0 0 0 0 0 16 71 74 45 35 74 100 100 100 100 100 100 100 100 100 100 100 97 97 100 100 90 94 90 87 84 77 81 81 94 90 94 100
0 0 0 0 0 0 0 0 0 0 0 3 0 0 0 0 45 71 58 29 42 71 97 100 100 100 100 100 100 100 100 100 100 100 97 94 97 97 94 71 58 42 32 29 58 84 84 90 100
0 0 0 0 0 0 0 0 0 0 0 0 0 0 0 0 3 39 48 42 55 77 87 97 100 100 100 100 100 100 100 100 100 100 100 94 90 94 94 68 39 10 3 3 10 29 61 68 81
0 0 0 0 0 0 0 0 0 0 0 0 0 0 0 0 0 3 48 71 81 84 77 94 97 100 100 100 100 100 100 100 100 100 100 97 97 100 97 74 58 10 3 3 0 3 13 39 39
0 0 0 0 0 0 0 0 0 0 0 0 0 0 0 0 0 13 42 77 90 87 84 94 97 100 100 100 100 100 100 100 100 100 100 100 74 71 90 68 71 23 0 0 0 0 3 19 23
0 0 0 0 0 0 0 0 0 0 0 0 0 0 0 0 0 6 26 61 87 84 77 81 90 97 97 97 100 100 100 100 100 100 100 68 0 3 45 71 81 55 10 3 0 0 0 0 0
0 0 0 0 0 0 0 0 0 0 0 0 0 0 0 0 0 0 6 29 71 90 77 65 65 65 61 65 71 100 87 97 97 77 68 16 0 0 3 3 55 26 10 0 0 0 0 0 0
0 0 0 0 0 0 0 0 0 0 0 0 0 0 0 0 0 0 0 3 16 48 81 77 52 52 45 42 52 55 58 74 74 61 39 13 0 0 0 0 0 0 0 0 0 0 0 0 0
0 0 0 0 0 0 0 0 0 0 0 0 0 0 0 0 0 0 0 0 0 13 45 65 65 61 52 39 35 32 23 39 35 39 32 6 0 0 0 0 0 0 0 0 0 0 0 0 0
0 0 0 0 0 0 0 0 0 0 0 0 0 0 0 0 0 0 0 0 0 0 6 29 58 65 61 48 29 16 13 10 3 6 13 6 0 0 0 0 0 0 0 0 0 0 0 0 0
0 0 0 0 0 0 0 0 0 0 0 0 0 0 0 0 0 0 0 0 0 0 0 3 6 32 45 39 19 13 10 13 6 0 3 3 0 0 0 0 0 0 0 0 0 0 0 0 0
0 0 0 0 0 0 0 0 0 0 0 0 0 0 0 0 0 0 0 0 0 0 0 0 3 3 13 29 23 16 10 10 6 0 0 0 0 0 0 0 0 0 0 0 0 0 0 0 0
0 0 0 0 0 0 0 0 0 0 0 0 0 0 0 0 0 0 0 0 0 0 0 0 3 0 3 3 10 13 13 16 3 0 0 0 0 0 0 0 0 0 0 0 0 0 0 0 0
0 0 0 0 0 0 0 0 0 0 0 0 0 0 0 0 0 0 0 0 0 0 0 0 0 3 0 0 0 3 6 6 3 3 0 0 0 0 0 0 0 0 0 0 0 0 0 0 0
0 0 0 0 0 0 0 0 0 0 0 0 0 0 0 0 0 0 0 0 0 0 0 0 0 0 0 0 0 0 3 3 3 6 3 3 0 0 0 0 0 0 0 0 0 0 0 0 0
0 0 0 0 0 0 0 0 0 0 0 0 0 0 0 0 0 0 0 0 0 0 0 0 0 0 0 0 0 3 3 6 10 6 3 3 0 0 0 0 0 0 0 0 0 0 0 0 0
0 0 0 0 0 0 0 0 0 0 0 0 0 0 0 0 0 0 0 0 0 0 0 0 0 0 0 0 0 0 6 3 3 3 3 3 0 0 0 0 0 0 0 0 0 0 0 0 0
0 0 0 0 0 0 0 0 0 0 0 0 0 0 0 0 0 0 0 0 0 0 0 0 0 0 0 0 0 0 0 3 3 3 3 3 0 0 0 0 0 0 0 0 0 0 0 0 0
0 0 0 0 0 0 0 0 0 0 0 0 0 0 0 0 0 0 0 0 0 0 0 0 0 0 0 0 0 0 3 3 3 3 3 3 0 0 0 0 0 0 0 0 0 0 0 0 0
0 0 0 0 0 0 0 0 0 0 0 0 0 0 0 0 0 0 0 0 0 0 0 0 0 0 0 0 0 0 0 3 3 3 3 3 0 0 0 0 0 0 0 0 0 0 0 0 0
0 0 0 0 0 0 0 0 0 0 0 0 0 0 0 0 0 0 0 0 0 0 0 0 0 0 0 0 0 0 0 0 3 3 3 3 3 0 0 0 0 0 0 0 0 0 0 0 0
0 0 0 0 0 0 0 0 0 0 0 0 0 0 0 0 0 0 0 0 0 0 0 0 0 0 0 0 0 0 0 0 0 0 0 0 0 0 0 0 0 0 0 0 0 0 0 0 0
0 0 0 0 0 0 0 0 0 0 0 0 0 0 0 0 0 0 0 0 0 0 0 0 0 0 0 0 0 0 0 0 0 0 0 0 0 0 0 0 0 0 0 0 0 0 0 0 0
0 0 0 0 0 0 0 0 0 0 0 0 0 0 0 0 0 0 0 0 0 0 0 0 0 0 0 0 0 0 0 0 0 0 0 0 0 0 0 0 0 0 0 0 0 0 0 0 0
0 0 0 0 0 0 0 0 0 0 0 0 0 0 0 0 0 0 0 0 0 0 0 0 0 0 0 0 0 0 0 0 0 0 0 0 0 0 0 0 0 0 0 0 0 0 0 0 0
0 0 0 0 0 0 0 0 0 0 0 0 0 0 0 0 0 0 0 0 0 0 0 0 0 0 0 0 0 0 0 0 0 0 0 0 0 0 0 0 0 0 0 0 0 0 0 0 0

GEFSSGP_con_cape1000_030.txt.gz
Probability
100 100 94 0 0 0 0 0 0 0 0 0 0 0 0 0 0 0 0 0 0 19 77 100 100 100 100 100 100 100 100 100 100 100 100 100 100 100 100 100 100 100 100 100 100 100 100 100 97
100 100 19 0 0 0 0 0 0 0 0 0 0 0 0 0 3 0 0 0 6 52 90 100 100 100 100 100 100 100 100 97 94 90 90 90 90 94 97 97 100 100 100 100 100 100 100 100 97
100 87 0 0 0 0 0 0 0 0 0 0 0 0 0 0 6 6 0 0 23 71 90 100 100 100 100 100 100 100 100 94 84 84 84 87 90 90 87 90 84 77 81 77 97 100 100 100 100
74 6 0 0 0 0 0 0 0 0 0 0 0 0 0 0 13 13 3 0 35 74 90 100 100 100 100 100 100 100 100 90 84 77 71 81 77 77 77 81 68 52 61 74 81 97 97 100 100
0 0 0 0 0 0 0 0 0 0 0 0 0 0 0 3 23 19 6 6 32 71 90 100 100 100 100 100 100 100 100 94 84 71 65 68 48 65 74 61 65 52 35 48 74 87 90 94 97
0 0 0 0 0 0 0 0 0 0 0 0 0 0 0 39 32 16 6 10 32 71 94 100 100 100 100 100 100 100 100 94 87 81 71 68 65 58 52 42 45 26 16 19 52 74 84 81 84
0 0 0 0 0 0 0 0 0 0 0 0 0 0 0 48 39 19 6 10 29 71 97 100 100 100 100 100 100 100 100 100 97 94 90 84 77 71 58 35 19 10 3 3 13 26 42 58 68
0 0 0 0 0 0 0 0 0 0 0 0 0 0 0 16 48 26 10 10 26 45 84 97 100 100 100 100 100 100 100 100 100 100 100 97 94 94 71 45 26 3 3 0 0 0 16 29 45
0 0 0 0 0 0 0 0 0 0 0 0 0 0 0 6 48 42 19 19 32 48 48 77 94 94 100 100 100 100 100 100 100 100 100 100 84 65 84 58 39 10 0 0 0 0 3 10 16
0 0 0 0 0 0 0 0 0 0 0 0 0 0 0 39 55 42 26 35 42 42 45 55 84 81 90 100 100 100 100 100 100 97 97 81 13 3 45 52 68 26 10 0 0 0 0 0 0
0 0 0 0 0 0 0 0 0 0 0 0 0 0 0 19 29 32 29 32 35 48 48 58 71 84 84 94 84 100 97 97 94 74 52 32 3 0 6 3 26 26 26 0 0 0 0 0 0
0 0 0 0 0 0 0 0 0 0 0 0 0 0 0 3 6 13 13 10 26 39 42 52 65 71 74 81 71 81 84 74 68 61 32 3 3 0 0 0 0 0 0 0 0 0 0 0 0
0 0 0 0 0 0 0 0 0 0 0 0 0 0 0 0 0 0 0 0 0 13 19 23 42 39 55 48 26 61 77 77 65 55 35 13 3 0 0 0 0 0 0 0 0 0 0 0 0
0 0 0 0 0 0 0 0 0 0 0 0 0 0 0 0 0 0 0 0 0 0 0 16 19 19 29 26 13 35 39 58 48 52 42 19 10 3 0 0 0 0 0 0 0 0 0 0 0
0 0 0 0 0 0 0 0 0 0 0 0 0 0 0 0 0 0 0 0 0 0 0 0 3 13 3 13 19 23 32 29 35 45 26 19 3 3 0 0 0 0 0 0 0 0 0 0 0
0 0 0 0 0 0 0 0 0 0 0 0 0 0 0 0 0 0 0 0 0 0 0 0 0 0 0 3 6 10 26 19 19 16 10 10 6 3 0 0 0 0 0 0 0 0 0 0 0
0 0 0 0 0 0 0 0 0 0 0 0 0 0 0 0 0 0 0 0 0 0 0 0 0 0 0 0 0 6 10 16 16 10 3 3 3 0 0 0 0 0 0 0 0 0 0 0 0
0 0 0 0 0 0 0 0 0 0 0 0 0 0 0 0 0 0 0 0 0 0 0 0 0 0 0 0 0 0 3 3 13 10 10 0 0 0 0 0 0 0 0 0 0 0 0 0 0
0 0 0 0 0 0 0 0 0 0 0 0 0 0 0 0 0 0 0 0 0 0 0 0 0 0 0 0 0 0 0 0 3 6 6 0 0 0 0 0 0 0 0 0 0 0 0 0 0
0 0 0 0 0 0 0 0 0 0 0 0 0 0 0 0 0 0 0 0 0 0 0 0 0 0 0 0 0 0 0 0 0 3 3 3 3 0 0 0 0 0 0 0 0 0 0 0 0
0 0 0 0 0 0 0 0 0 0 0 0 0 0 0 0 0 0 0 0 0 0 0 0 0 0 0 0 0 0 0 0 0 0 3 3 6 0 0 0 0 0 0 0 0 0 0 0 0
0 0 0 0 0 0 0 0 0 0 0 0 0 0 0 0 0 0 0 0 0 0 0 0 0 0 0 0 0 0 0 0 0 0 0 3 3 0 0 0 0 0 0 0 0 0 0 0 0
0 0 0 0 0 0 0 0 0 0 0 0 0 0 0 0 0 0 0 0 0 0 0 0 0 0 0 0 0 0 0 0 0 0 0 0 0 3 0 0 0 0 0 0 0 0 0 0 0
0 0 0 0 0 0 0 0 0 0 0 0 0 0 0 0 0 0 0 0 0 0 0 0 0 0 0 0 0 0 3 3 3 3 3 0 0 0 0 0 0 0 0 0 0 0 0 0 0
0 0 0 0 0 0 0 0 0 0 0 0 0 0 0 0 0 0 0 0 0 0 0 0 0 0 0 0 0 3 3 3 3 3 6 6 0 0 0 0 0 0 0 0 0 0 0 0 0
0 0 0 0 0 0 0 0 0 0 0 0 0 0 0 0 0 0 0 0 0 0 0 0 0 0 0 0 0 0 0 0 0 0 0 0 0 0 0 0 0 0 0 0 0 0 0 0 0
0 0 0 0 0 0 0 0 0 0 0 0 0 0 0 0 0 0 0 0 0 0 0 0 0 0 0 0 0 0 0 0 0 0 0 0 0 0 0 0 0 0 0 0 0 0 0 0 0
0 0 0 0 0 0 0 0 0 0 0 0 0 0 0 0 0 0 0 0 0 0 0 0 0 0 0 0 0 0 0 0 0 0 0 0 0 0 0 0 0 0 0 0 0 0 0 0 0
0 0 0 0 0 0 0 0 0 0 0 0 0 0 0 0 0 0 0 0 0 0 0 0 0 0 0 0 0 0 0 0 0 0 0 0 0 0 0 0 0 0 0 0 0 0 0 0 0
0 0 0 0 0 0 0 0 0 0 0 0 0 0 0 0 0 0 0 0 0 0 0 0 0 0 0 0 0 0 0 0 0 0 0 0 0 0 0 0 0 0 0 0 0 0 0 0 0

GEFSSGP_con_cape1000_036.txt.gz
Probability
100 100 100 97 0 0 0 0 0 0 0 0 0 0 0 0 0 3 10 3 0 58 94 100 100 100 100 100 100 100 100 100 100 100 100 100 100 100 100 94 94 94 90 90 94 94 97 94 100
100 100 90 10 0 0 0 0 0 0 0 0 0 0 0 0 0 0 3 3 13 39 94 100 100 100 100 100 100 100 100 100 100 100 97 97 97 97 94 94 84 87 90 87 87 90 97 87 87
100 100 42 0 0 0 0 0 0 0 0 0 0 0 0 0 0 0 6 13 13 42 94 100 100 100 100 100 100 100 100 97 94 87 84 81 84 84 77 84 77 74 81 84 84 90 90 90 87
100 74 3 0 0 0 0 0 0 0 0 0 0 0 0 0 0 0 3 13 13 42 97 100 100 100 100 100 100 100 100 94 84 84 77 81 77 71 74 61 45 55 61 71 87 87 87 84 84
55 13 0 0 0 0 0 0 0 0 0 0 0 0 0 52 26 3 3 10 10 29 48 100 100 100 100 100 100 100 100 97 84 84 74 71 71 71 58 55 45 32 35 58 65 71 74 77 81
61 0 0 0 0 0 0 0 0 0 0 0 0 0 0 55 39 26 10 10 6 19 39 74 100 100 100 100 100 100 97 94 94 90 77 71 55 55 52 42 32 23 19 32 61 68 61 68 71
61 0 0 0 0 0 0 0 0 0 0 0 0 0 0 45 74 55 35 29 19 16 13 52 90 100 100 100 100 100 100 100 100 97 90 84 71 65 48 29 19 10 3 6 23 32 42 42 42
35 6 0 0 0 0 0 0 0 0 0 0 0 0 0 52 90 74 52 35 26 16 16 16 45 71 87 100 100 100 100 100 100 100 97 97 84 74 58 39 26 6 3 0 3 16 23 35 39
0 0 0 0 0 0 0 0 0 0 0 0 0 19 19 74 77 71 58 35 39 13 10 6 16 48 81 81 94 100 100 100 100 100 100 100 87 61 77 55 35 13 0 0 0 3 19 35 29
0 0 0 6 0 0 0 0 0 0 3 0 0 19 45 68 68 52 42 26 32 13 16 19 26 48 65 77 77 100 100 100 100 100 97 94 71 32 16 55 52 16 6 0 0 0 3 0 13
0 0 6 6 0 0 0 0 3 3 3 3 0 16 42 42 45 39 39 39 52 52 48 35 48 45 61 87 94 97 100 100 100 97 94 100 84 74 23 55 74 58 10 6 3 0 0 0 0
0 0 0 0 0 0 0 0 0 0 0 0 3 6 13 13 19 19 16 16 16 23 39 45 45 65 68 84 97 90 97 97 100 100 100 100 97 87 35 35 23 23 32 6 3 0 0 0 0
0 0 0 0 0 0 0 0 0 0 0 0 0 0 0 0 3 3 3 3 3 6 6 19 26 35 55 77 84 87 100 94 94 97 97 97 97 97 58 29 35 23 13 10 3 0 0 0 0
3 0 0 0 0 0 0 0 0 0 0 0 0 0 0 0 0 0 3 3 3 3 0 3 10 19 29 52 61 74 84 84 90 97 97 90 100 97 81 58 29 16 10 6 0 0 0 0 0
0 0 0 0 0 0 0 0 0 0 0 0 0 0 0 0 0 0 0 0 0 0 0 0 0 3 10 19 23 39 55 58 74 84 87 81 90 87 94 74 29 29 19 3 0 0 0 0 0
0 0 0 0 0 0 0 0 0 0 0 0 0 0 0 0 0 0 0 0 0 0 0 0 0 0 0 3 13 19 32 48 52 58 71 65 68 77 94 94 71 48 29 16 10 0 0 0 0
0 0 0 0 0 0 0 0 0 0 0 0 0 0 0 0 0 0 0 0 0 0 0 0 0 0 0 0 3 10 13 39 48 52 55 52 55 58 81 90 87 52 77 58 10 3 0 0 0
0 0 0 0 0 0 0 0 0 0 0 0 0 0 0 0 0 0 0 0 0 0 0 0 0 0 0 0 3 13 19 29 45 48 52 42 35 45 58 81 81 81 90 74 39 13 3 3 3
0 0 0 0 0 0 0 0 0 0 0 0 0 0 0 0 0 0 0 0 0 0 0 0 0 0 0 0 0 3 10 13 26 48 48 58 42 42 52 55 61 68 65 48 26 32 6 6 3
0 0 0 0 0 0 0 0 0 0 0 0 0 0 0 0 0 0 0 0 0 0 0 0 0 0 0 0 0 0 0 10 16 39 45 58 52 65 48 58 68 58 55 45 42 39 26 19 6
0 0 0 0 0 0 0 0 0 0 0 0 0 0 0 0 0 0 0 0 0 0 0 0 0 0 3 0 0 0 3 19 19 26 42 39 48 58 58 58 61 55 55 45 35 23 23 26 6
0 0 0 0 0 0 0 0 0 0 0 0 0 0 0 0 0 0 0 0 0 0 0 0 0 0 3 3 0 0 10 13 13 13 26 32 35 55 61 68 65 55 58 55 39 23 19 23 10
0 0 0 0 0 0 0 0 0 0 0 0 0 0 0 0 0 0 0 0 0 0 0 0 0 3 3 3 3 10 13 19 23 26 26 29 29 29 35 48 65 55 55 39 32 29 23 23 10
0 0 0 0 0 0 0 0 0 0 0 0 0 0 0 0 0 0 0 0 0 0 0 0 0 3 3 3 6 3 10 13 26 32 35 32 35 32 26 29 35 39 42 35 39 26 23 26 16
0 0 0 0 0 0 0 0 0 0 0 0 0 0 0 0 0 0 0 0 0 0 0 0 0 0 0 0 3 6 10 16 26 26 23 26 26 35 35 26 26 35 35 32 26 35 32 23 10
0 0 0 0 0 0 0 0 0 0 0 0 0 0 0 0 0 0 0 0 0 0 0 0 0 0 0 0 0 0 3 3 10 10 10 16 23 29 26 26 19 23 23 23 32 32 29 13 16
0 0 0 0 0 0 0 0 0 0 0 0 0 0 0 0 0 0 0 0 0 0 0 0 0 0 0 0 0 0 0 0 0 6 6 10 10 16 13 16 23 23 23 23 19 23 16 6 6
0 0 0 0 0 0 0 0 0 0 0 0 0 0 0 0 0 0 0 0 0 0 0 0 0 0 0 0 0 0 0 0 0 0 0 0 0 3 3 3 6 16 16 13 13 10 3 3 0
0 0 0 0 0 0 0 0 0 0 0 0 0 0 0 0 0 0 0 0 0 0 0 0 0 0 0 0 0 0 0 0 0 0 0 3 0 0 0 0 0 0 0 0 0 0 0 0 0
0 0 0 0 0 0 0 0 0 0 0 0 0 0 0 0 0 0 0 0 0 0 0 0 0 0 0 0 0 0 0 0 0 0 0 0 0 0 0 0 0 0 0 0 0 0 0 0 0

GEFSSGP_con_cape1000_042.txt.gz
Probability
100 100 100 100 100 68 0 0 0 0 0 0 0 0 0 0 10 39 74 81 90 97 97 100 100 100 100 100 100 100 100 97 97 97 97 90 87 84 77 71 71 77 87 81 74 81 84 84 90
100 100 100 100 100 0 0 0 0 0 0 0 0 0 0 0 0 3 35 77 90 100 100 100 100 100 100 100 100 100 100 100 97 97 94 97 84 74 61 65 68 61 68 71 74 74 84 87 77
100 100 100 100 3 0 0 0 0 0 0 0 0 0 0 0 0 16 32 58 87 100 100 100 100 100 100 100 100 100 100 100 97 94 94 84 77 77 65 68 55 58 55 65 77 74 81 77 81
100 100 100 71 0 0 0 0 0 0 0 0 0 0 0 3 0 10 10 32 74 100 100 100 100 100 100 100 100 100 100 100 90 81 81 74 71 65 55 52 52 45 48 58 74 71 71 81 71
100 97 68 0 0 0 0 0 0 0 0 0 0 0 0 3 3 3 13 23 52 94 100 100 100 100 100 100 100 100 100 94 87 84 71 68 71 61 58 39 35 35 32 42 52 71 68 74 68
97 74 13 3 0 0 0 3 0 0 3 3 6 6 6 0 3 6 6 10 35 90 100 100 100 100 100 100 100 100 100 97 87 77 77 71 68 68 55 58 35 26 26 32 35 55 61 55 45
97 84 6 3 13 0 0 0 10 10 19 16 13 16 19 13 16 10 6 19 19 45 87 100 100 100 100 100 100 100 100 97 94 94 90 84 81 74 65 55 42 16 16 13 13 32 35 39 35
100 87 0 3 23 3 3 6 13 35 42 39 35 23 23 23 19 19 16 16 23 16 29 87 97 97 100 100 100 100 100 100 100 97 97 94 90 81 77 68 58 26 6 0 6 16 29 32 42
19 10 6 42 74 39 13 6 29 39 48 39 32 23 23 39 23 26 29 29 32 29 19 16 55 84 97 100 100 100 100 100 100 100 100 100 94 71 74 77 74 48 23 6 3 10 26 39 52
29 71 29 52 74 65 39 29 35 32 19 19 19 16 23 26 26 26 29 32 32 35 26 19 26 42 52 74 100 100 100 100 100 100 100 94 74 61 71 84 84 58 39 19 13 13 26 16 6
26 74 39 19 23 45 23 10 10 13 6 10 10 10 6 6 10 10 10 10 6 16 16 10 13 13 26 55 71 100 97 97 97 84 84 90 65 48 42 45 74 52 19 6 6 0 0 0 0
19 23 3 3 3 13 10 6 0 0 0 0 0 0 0 0 0 0 0 0 0 0 0 6 3 3 13 35 45 65 77 77 87 90 87 61 45 29 16 10 23 32 13 10 3 0 0 0 0
3 0 3 3 3 3 0 0 0 0 0 0 0 0 0 0 0 0 0 0 0 0 0 0 0 0 3 19 29 19 42 61 55 65 74 68 58 35 19 6 13 23 16 16 13 3 0 0 0
10 0 0 0 3 0 0 0 0 0 0 0 0 0 0 0 0 0 0 0 0 0 0 0 0 0 3 3 10 16 19 39 48 52 55 52 55 55 52 13 6 13 16 13 3 3 0 0 0
0 0 0 0 0 0 0 0 0 0 0 0 0 0 0 0 0 0 0 0 0 0 0 0 0 0 0 0 6 3 23 13 23 29 35 39 45 45 48 29 10 3 3 3 0 0 0 0 0
0 0 0 0 0 0 0 0 0 0 0 0 0 0 0 0 0 0 0 0 0 0 0 0 0 0 0 0 3 6 6 6 13 23 23 23 13 23 52 45 32 19 10 3 3 3 0 0 0
0 0 0 0 0 0 0 0 0 0 0 0 0 0 0 0 0 0 0 0 0 0 0 0 0 0 0 0 0 3 10 10 6 19 19 26 23 23 29 48 48 19 26 10 3 0 0 0 0
0 0 0 0 0 0 0 0 0 0 0 0 0 0 0 0 0 0 0 0 0 0 0 0 0 0 0 0 0 3 13 10 13 26 23 16 23 26 16 39 32 35 19 16 10 10 10 3 0
0 0 0 0 0 0 0 0 0 0 0 0 0 0 0 0 0 0 0 0 0 0 0 0 0 0 0 0 0 0 3 6 16 13 32 26 26 19 19 10 19 29 29 13 10 13 3 6 0
0 0 0 0 0 0 0 0 0 0 0 0 0 0 0 0 0 0 0 0 0 0 0 0 0 0 0 0 0 0 0 3 10 23 16 26 26 29 16 13 16 16 19 16 19 6 3 0 0
0 0 0 0 0 0 0 0 0 0 0 0 0 0 0 0 0 0 0 0 0 0 0 0 0 0 0 0 3 0 0 10 13 13 16 23 32 32 32 23 13 19 10 16 13 6 3 0 0
0 0 0 0 0 0 0 0 0 0 0 0 0 0 0 0 0 0 0 0 0 0 0 0 0 0 0 6 3 3 6 3 3 6 13 16 23 29 32 29 26 19 16 13 19 13 6 3 0
0 0 0 0 0 0 0 0 0 0 0 0 0 0 0 0 0 0 0 0 0 0 0 0 0 0 0 0 3 6 6 3 3 13 23 19 16 32 39 35 26 26 13 13 13 13 6 3 3
0 0 0 0 0 0 0 0 0 0 0 0 0 0 0 0 0 0 0 0 0 0 0 0 0 0 0 0 0 3 3 3 6 10 16 16 13 19 19 26 23 23 19 16 10 10 6 3 3
0 0 0 0 0 0 0 0 0 0 0 0 0 0 0 0 0 0 0 0 0 0 0 0 0 0 0 0 0 0 3 3 3 3 10 16 16 13 10 16 13 16 16 16 13 6 10 6 10
0 0 0 0 0 0 0 0 0 0 0 0 0 0 0 0 0 0 0 0 0 0 0 0 0 0 0 0 0 0 0 0 0 0 6 6 6 3 10 6 6 6 10 10 13 16 13 13 6
0 0 0 0 0 0 0 0 0 0 0 0 0 0 0 0 0 0 0 0 0 0 0 0 0 0 0 0 0 0 0 0 0 0 0 0 3 3 3 3 10 13 13 13 13 16 16 13 6
0 0 0 0 0 0 0 0 0 0 0 0 0 0 0 0 0 0 0 0 0 0 0 0 0 0 0 0 0 0 0 0 0 0 0 0 0 3 3 3 6 6 16 16 16 16 16 13 3
0 0 0 0 0 0 0 0 0 0 0 0 0 0 0 0 0 0 0 0 0 0 0 0 0 0 0 0 0 0 0 0 0 0 0 0 0 0 0 0 0 0 0 3 6 6 6 6 0
0 0 0 0 0 0 0 0 0 0 0 0 0 0 0 0 0 0 0 0 0 0 0 0 0 0 0 0 0 0 0 0 0 0 0 0 0 0 0 0 0 0 0 0 0 3 3 0 3

GEFSSGP_con_cape1000_048.txt.gz
Probability
100 100 100 100 23 0 0 0 0 0 0 0 0 0 0 0 0 0 3 58 52 81 100 100 100 100 100 100 100 100 100 100 100 100 100 100 87 90 87 90 87 87 87 90 97 97 94 97 100
100 100 100 55 0 0 0 0 0 0 0 0 0 0 0 0 3 39 55 65 65 94 100 100 100 100 100 100 100 100 100 100 100 100 100 100 100 94 81 71 74 74 81 81 90 87 94 94 90
97 97 97 6 0 0 0 0 0 0 0 0 0 0 0 3 19 45 68 74 71 94 100 100 100 100 100 100 100 100 100 100 100 100 100 100 90 90 71 71 61 61 71 74 81 87 90 90 84
94 61 23 0 0 0 0 0 0 0 0 0 0 0 0 3 19 68 81 77 74 87 100 100 100 100 100 100 100 100 100 100 100 100 97 90 81 81 74 68 65 55 58 68 84 87 81 77 77
61 19 0 0 0 0 0 0 0 0 0 0 0 0 0 6 35 71 77 77 87 97 100 100 100 100 100 100 100 100 100 100 97 87 87 77 77 74 68 65 65 55 45 45 65 81 81 81 65
32 3 0 0 0 0 0 0 3 0 0 0 0 0 0 0 29 42 68 74 94 94 97 97 100 100 100 100 100 100 100 100 100 90 87 81 81 87 77 65 61 48 35 39 55 71 74 77 77
19 3 0 0 0 0 0 0 0 0 3 3 0 0 0 0 0 19 29 55 65 77 84 90 97 97 97 100 100 100 100 100 100 100 100 87 87 90 87 84 65 45 39 42 48 58 68 74 77
3 0 0 0 0 0 3 13 3 6 0 0 0 0 0 0 3 6 13 19 19 23 32 45 61 74 90 97 100 100 100 100 100 100 100 100 94 90 87 87 84 61 42 35 48 52 68 74 77
0 0 0 0 0 0 0 6 3 0 0 0 3 3 0 0 0 6 6 6 10 6 3 3 23 29 48 61 87 97 97 97 100 97 97 100 90 87 84 90 87 84 61 48 48 45 55 61 74
0 0 0 0 0 0 0 0 3 0 0 0 0 0 0 0 0 0 0 3 3 3 3 3 3 3 10 35 52 61 77 84 87 87 94 94 68 35 55 71 94 94 84 81 58 58 65 61 3
0 0 0 0 0 0 0 0 0 0 0 0 0 0 0 0 0 0 0 0 0 0 0 0 0 0 0 3 13 16 35 48 58 68 58 61 58 29 35 6 55 90 84 52 45 48 16 0 0
0 0 0 3 0 0 0 0 0 0 0 0 0 0 0 0 0 0 0 0 0 0 0 0 0 0 0 0 0 0 6 13 19 32 32 29 35 19 10 3 3 10 19 10 6 3 3 0 0
0 0 0 0 0 0 0 0 0 0 0 0 0 0 0 0 0 0 0 0 0 0 0 0 0 0 0 0 0 0 0 0 10 6 13 16 16 10 3 3 0 0 0 3 3 3 0 0 0
0 0 0 0 0 0 0 0 0 0 0 0 0 0 0 0 0 0 0 0 0 0 0 0 0 0 0 0 0 0 0 0 0 0 0 6 13 0 0 0 0 0 0 0 3 3 3 0 0
0 0 0 0 0 0 0 0 0 0 0 0 0 0 0 0 0 0 0 0 0 0 0 0 0 0 0 0 0 0 0 0 0 0 0 0 3 6 0 0 3 0 0 0 0 0 0 0 0
0 0 0 0 0 0 0 0 0 0 0 0 0 0 0 0 0 0 0 0 0 0 0 0 0 0 0 0 0 0 0 0 0 0 0 0 0 3 3 0 0 3 0 0 0 0 0 0 0
0 0 0 0 0 0 0 0 0 0 0 0 0 0 0 0 0 0 0 0 0 0 0 0 0 0 0 0 0 0 0 0 0 0 0 0 0 0 0 0 0 0 0 0 0 0 0 0 0
0 0 0 0 0 0 0 0 0 0 0 0 0 0 0 0 0 0 0 0 0 0 0 0 0 0 0 0 0 0 0 0 0 0 0 0 0 0 0 0 0 0 0 0 0 0 0 0 0
0 0 0 0 0 0 0 0 0 0 0 0 0 0 0 0 0 0 0 0 0 0 0 0 0 0 0 0 0 0 0 0 0 0 0 0 0 0 0 0 0 0 0 0 0 0 0 0 0
0 0 0 0 0 0 0 0 0 0 0 0 0 0 0 0 0 0 0 0 0 0 0 0 0 0 0 0 0 0 0 0 0 0 0 0 0 0 0 0 0 0 0 0 0 0 0 0 0
0 0 0 0 0 0 0 0 0 0 0 0 0 0 0 0 0 0 0 0 0 0 0 0 0 0 0 0 0 0 0 0 0 0 0 0 0 0 0 0 0 0 0 0 0 0 3 0 0
0 0 0 0 0 0 0 0 0 0 0 0 0 0 0 0 0 0 0 0 0 0 0 0 0 0 0 0 0 0 0 0 0 0 0 0 0 0 0 0 0 0 0 0 0 0 0 3 0
0 0 0 0 0 0 0 0 0 0 0 0 0 0 0 0 0 0 0 0 0 0 0 0 0 0 0 0 0 0 0 0 0 0 0 0 0 0 0 0 0 0 3 3 0 0 0 0 0
0 0 0 0 0 0 0 0 0 0 0 0 0 0 0 0 0 0 0 0 0 0 0 0 0 0 0 0 0 0 0 0 0 0 0 0 0 0 0 0 0 0 3 3 3 0 0 0 0
0 0 0 0 0 0 0 0 0 0 0 0 0 0 0 0 0 0 0 0 0 0 0 0 0 0 0 0 0 0 0 0 0 0 0 0 0 0 0 0 0 0 0 3 3 3 0 0 0
0 0 0 0 0 0 0 0 0 0 0 0 0 0 0 0 0 0 0 0 0 0 0 0 0 0 0 0 0 0 0 0 0 0 0 0 0 0 0 0 0 0 0 0 3 3 3 0 0
0 0 0 0 0 0 0 0 0 0 0 0 0 0 0 0 0 0 0 0 0 0 0 0 0 0 0 0 0 0 0 0 0 0 0 0 0 0 0 0 0 0 0 0 0 0 3 3 0
0 0 0 0 0 0 0 0 0 0 0 0 0 0 0 0 0 0 0 0 0 0 0 0 0 0 0 0 0 0 0 0 0 0 0 0 0 0 0 0 0 0 0 0 3 3 3 3 0
0 0 0 0 0 0 0 0 0 0 0 0 0 0 0 0 0 0 0 0 0 0 0 0 0 0 0 0 0 0 0 0 0 0 0 0 0 0 0 0 0 0 0 0 0 0 0 0 3
0 0 0 0 0 0 0 0 0 0 0 0 0 0 0 0 0 0 0 0 0 0 0 0 0 0 0 0 0 0 0 0 0 0 0 0 0 0 0 0 0 0 0 0 0 0 0 0 3

GEFSSGP_con_cape1000_054.txt.gz
Probability
100 100 100 71 0 0 0 0 0 0 0 0 0 0 0 0 0 0 0 10 13 35 87 100 100 100 100 100 100 100 100 100 100 100 100 100 97 97 97 94 97 97 90 97 97 100 100 100 94
97 100 81 10 0 0 0 0 0 0 0 0 0 0 0 10 19 16 29 39 26 65 97 100 100 100 100 100 100 100 100 100 100 100 100 100 100 97 87 87 94 84 81 81 94 94 97 94 90
97 97 39 0 0 0 0 0 0 0 0 0 0 0 0 6 16 16 35 39 55 77 100 100 100 100 100 100 100 100 100 100 100 100 100 100 100 100 84 84 77 74 77 71 87 90 90 90 84
94 19 0 0 0 0 0 0 0 0 0 0 0 0 0 0 13 26 42 55 58 87 100 100 100 100 100 100 100 100 100 100 100 100 100 100 100 94 81 77 61 65 68 74 81 87 87 87 81
23 3 0 0 0 0 0 0 0 0 0 0 0 0 0 3 13 16 32 45 45 65 90 94 100 100 100 100 100 100 100 100 100 100 100 100 94 84 74 65 71 61 65 68 77 81 84 84 77
13 0 0 0 0 0 0 0 0 0 0 0 0 0 0 3 13 19 29 19 29 52 61 71 90 97 97 100 100 100 100 100 100 100 100 100 97 87 84 74 68 68 58 55 65 81 81 84 84
6 0 0 0 0 0 0 0 0 0 0 0 0 0 0 3 6 13 10 10 16 13 19 26 32 48 71 90 97 100 97 100 100 100 100 100 100 100 97 81 74 68 61 52 58 55 74 81 81
0 0 0 0 0 0 0 0 0 0 0 0 0 0 0 3 3 3 3 3 3 3 3 3 6 6 23 26 68 87 94 94 97 97 100 100 100 100 100 94 90 77 68 58 52 65 61 74 74
0 0 0 0 0 0 0 0 0 0 0 0 0 0 0 0 0 0 0 0 0 0 0 0 0 3 3 3 10 39 48 61 65 84 87 87 97 84 94 97 94 90 84 71 65 58 65 68 71
0 0 0 0 0 0 0 0 0 0 0 0 0 0 0 0 0 0 0 0 0 0 0 0 0 0 0 0 0 0 3 16 23 39 42 58 58 61 77 81 97 94 94 87 87 71 65 58 16
0 0 0 0 0 0 0 0 0 0 0 0 0 0 0 0 0 0 0 0 0 0 0 0 0 0 0 0 0 0 0 0 0 3 13 19 32 29 45 23 45 68 84 77 71 68 39 13 0
0 0 0 0 0 0 0 0 0 0 0 0 0 0 0 0 0 0 0 0 0 0 0 0 0 0 0 0 0 0 0 0 0 3 3 3 3 10 10 6 0 3 3 19 6 3 6 0 0
0 0 0 0 0 0 0 0 0 0 0 0 0 0 0 0 0 0 0 0 0 0 0 0 0 0 0 0 0 0 0 0 0 3 0 3 3 3 6 6 10 3 3 3 3 3 0 0 0
0 0 0 0 0 0 0 0 0 0 0 0 0 0 0 0 0 0 0 0 0 0 0 0 0 0 0 0 0 0 0 0 0 0 0 0 0 3 3 3 0 0 0 3 3 3 0 0 0
0 0 0 0 0 0 0 0 0 0 0 0 0 0 0 0 0 0 0 0 0 0 0 0 0 0 0 0 0 0 0 0 0 0 0 0 0 0 0 0 0 0 0 0 0 0 0 0 0
0 0 0 0 0 0 0 0 0 0 0 0 0 0 0 0 0 0 0 0 0 0 0 0 0 0 0 0 0 0 0 0 0 0 0 0 0 0 0 0 0 0 0 0 0 0 0 0 0
0 0 0 0 0 0 0 0 0 0 0 0 0 0 0 0 0 0 0 0 0 0 0 0 0 0 0 0 0 0 0 0 0 0 0 0 0 0 0 0 0 0 0 0 0 0 0 0 0
0 0 0 0 0 0 0 0 0 0 0 0 0 0 0 0 0 0 0 0 0 0 0 0 0 0 0 0 0 0 0 0 0 0 0 0 0 0 0 0 0 0 0 0 0 0 0 0 0
0 0 0 0 0 0 0 0 0 0 0 0 0 0 0 0 0 0 0 0 0 0 0 0 0 0 0 0 0 0 0 0 0 0 0 0 0 0 0 0 0 0 0 0 0 0 0 0 0
0 0 0 0 0 0 0 0 0 0 0 0 0 0 0 0 0 0 0 0 0 0 0 0 0 0 0 0 0 0 0 0 0 0 0 0 0 0 0 0 0 0 0 0 0 0 0 0 0
0 0 0 0 0 0 0 0 0 0 0 0 0 0 0 0 0 0 0 0 0 0 0 0 0 0 0 0 0 0 0 0 0 0 0 0 0 0 0 0 0 0 0 0 0 0 0 0 0
0 0 0 0 0 0 0 0 0 0 0 0 0 0 0 0 0 0 0 0 0 0 0 0 0 0 0 0 0 0 0 0 0 0 0 0 0 0 0 0 0 0 0 0 0 0 0 0 0
0 0 0 0 0 0 0 0 0 0 0 0 0 0 0 0 0 0 0 0 0 0 0 0 0 0 0 0 0 0 0 0 0 0 0 0 0 0 0 0 0 0 0 0 0 0 0 0 0
0 0 0 0 0 0 0 0 0 0 0 0 0 0 0 0 0 0 0 0 0 0 0 0 0 0 0 0 0 0 0 0 0 0 0 0 0 0 0 0 0 0 0 0 0 0 0 0 0
0 0 0 0 0 0 0 0 0 0 0 0 0 0 0 0 0 0 0 0 0 0 0 0 0 0 0 0 0 0 0 0 0 0 0 0 0 0 0 0 0 0 3 0 0 0 0 0 0
0 0 0 0 0 0 0 0 0 0 0 0 0 0 0 0 0 0 0 0 0 0 0 0 0 0 0 0 0 0 0 0 0 0 0 0 0 0 0 0 0 0 0 3 0 0 0 0 0
0 0 0 0 0 0 0 0 0 0 0 0 0 0 0 0 0 0 0 0 0 0 0 0 0 0 0 0 0 0 0 0 0 0 0 0 0 0 0 0 0 0 0 0 0 0 0 0 0
0 0 0 0 0 0 0 0 0 0 0 0 0 0 0 0 0 0 0 0 0 0 0 0 0 0 0 0 0 0 0 0 0 0 0 0 0 0 0 0 0 0 0 0 0 0 0 0 0
0 0 0 0 0 0 0 0 0 0 0 0 0 0 0 0 0 0 0 0 0 0 0 0 0 0 0 0 0 0 0 0 0 0 0 0 0 0 0 0 0 0 0 0 0 0 0 0 0
0 0 0 0 0 0 0 0 0 0 0 0 0 0 0 0 0 0 0 0 0 0 0 0 0 0 0 0 0 0 0 0 0 0 0 0 0 0 0 0 0 0 0 0 0 0 0 0 0

GEFSSGP_con_cape1000_060.txt.gz
Probability
100 100 100 100 81 3 0 0 0 0 0 0 0 0 0 0 0 3 32 19 3 6 26 90 100 100 100 100 100 97 97 100 100 97 97 97 97 97 97 90 90 90 90 94 97 100 100 97 94
100 100 97 84 10 0 0 0 0 0 0 0 0 0 0 0 0 3 26 42 23 23 42 71 100 100 100 100 100 100 100 100 100 100 100 100 100 100 100 90 94 94 94 87 87 94 97 90 94
94 97 87 29 0 0 0 0 0 0 0 0 0 0 0 0 3 19 39 52 35 35 68 84 100 100 100 100 97 97 100 100 100 94 100 100 100 100 100 94 90 84 81 74 87 90 90 87 81
90 81 55 3 0 0 0 0 0 0 0 0 0 0 3 3 13 26 35 52 42 39 58 74 94 94 90 97 97 94 90 94 97 97 97 97 100 100 100 90 84 71 74 71 84 87 84 81 71
90 65 3 0 0 0 0 0 0 0 0 0 0 0 3 13 23 29 32 29 32 29 42 58 77 71 81 81 90 87 87 84 87 87 94 100 100 100 97 84 74 74 71 77 74 71 84 74 68
81 29 0 0 0 0 0 0 0 0 0 0 0 0 6 10 16 23 29 29 16 16 16 19 23 32 45 65 77 74 84 84 81 87 84 84 94 94 94 94 77 81 77 71 68 65 71 74 77
87 10 0 0 0 0 0 3 3 0 0 0 0 0 10 6 13 16 13 6 6 6 3 3 10 10 16 26 32 52 55 74 71 71 84 87 90 90 94 87 87 81 81 77 61 55 58 58 58
90 6 0 0 0 0 10 6 0 0 3 3 3 0 13 3 6 6 13 6 6 3 3 3 3 10 10 6 6 16 29 35 35 42 55 65 74 77 84 87 90 84 77 71 61 52 52 48 48
58 0 0 0 0 0 10 10 3 3 3 3 3 3 3 3 0 3 10 6 6 0 0 0 0 0 0 3 3 10 16 16 19 19 23 42 45 48 65 58 77 77 87 74 65 58 55 48 45
45 0 0 26 3 13 10 6 0 0 0 0 0 0 0 0 0 0 0 3 3 0 0 0 0 0 0 0 3 10 16 16 23 26 26 32 29 52 23 16 58 77 74 87 77 74 55 29 39
48 29 26 19 13 10 0 0 0 0 0 0 3 0 0 0 0 0 0 0 0 0 0 0 0 0 0 0 0 0 3 16 16 19 19 26 26 39 42 48 61 74 65 74 84 84 65 42 26
65 52 26 6 0 0 0 0 0 0 0 0 0 0 0 0 0 0 0 0 0 0 0 0 0 0 0 0 0 6 3 6 16 19 16 26 26 26 26 48 55 58 84 74 87 87 42 23 10
58 35 19 3 0 0 0 0 0 0 0 0 0 0 0 0 0 0 0 0 0 0 0 0 0 0 0 0 0 0 0 0 3 10 13 13 23 19 16 39 55 48 61 68 81 71 45 23 6
42 19 6 3 0 0 0 0 0 0 0 0 0 0 0 0 0 0 0 0 0 0 0 0 0 0 0 0 0 0 0 0 0 3 3 6 10 32 23 32 16 35 52 58 61 52 45 52 26
13 13 6 0 0 0 0 0 0 0 0 0 0 0 0 0 0 0 0 0 0 0 0 0 0 0 0 0 0 0 0 0 0 0 0 0 3 10 13 26 23 26 42 39 52 39 48 29 16
6 3 0 3 0 0 0 0 0 0 0 0 0 0 0 0 0 0 0 0 0 0 0 0 0 0 0 0 0 0 0 0 0 0 0 0 0 0 10 29 26 32 42 48 45 48 58 35 23
0 0 0 0 0 0 0 0 0 0 0 0 0 0 0 0 0 0 0 0 0 0 0 0 0 0 0 0 0 0 0 0 0 0 0 0 0 0 3 10 26 23 32 45 29 39 45 39 35
0 0 0 0 0 0 0 0 0 0 0 0 0 0 0 0 0 0 0 0 0 0 0 0 0 0 0 0 0 0 0 0 0 0 3 3 0 0 0 6 6 23 23 39 42 39 39 35 26
0 0 0 0 0 0 0 0 0 0 0 0 0 0 0 0 0 0 0 0 0 0 0 0 0 0 0 0 0 0 0 0 0 3 3 3 0 0 3 0 3 6 10 16 29 35 32 32 35
0 0 0 0 0 0 0 0 0 0 0 0 0 0 0 0 0 0 0 0 0 0 0 0 0 0 0 0 0 0 0 0 0 0 3 0 0 0 3 3 3 6 10 6 16 26 42 26 29
0 0 0 0 0 0 0 0 0 0 0 0 0 0 0 0 0 0 0 0 0 0 0 0 0 0 0 0 0 0 0 0 0 0 3 0 0 0 0 0 3 3 3 10 16 16 19 32 23
0 0 0 0 0 0 0 0 0 0 0 0 0 0 0 0 0 0 0 0 0 0 0 0 0 0 0 0 0 0 3 3 3 3 0 0 0 0 0 0 0 0 3 3 10 10 13 13 16
0 0 0 0 0 0 0 0 0 0 0 0 0 0 0 0 0 0 0 0 0 0 0 0 0 0 0 0 0 0 0 0 0 0 0 0 0 0 0 0 0 0 3 3 3 6 13 32 16
0 0 0 0 0 0 0 0 0 0 0 0 0 0 0 0 0 0 0 0 0 0 0 0 0 0 0 0 0 0 0 0 0 0 0 0 0 3 0 0 3 0 0 0 3 6 13 19 16
0 0 0 0 0 0 0 0 0 0 0 0 0 0 0 0 0 0 0 0 0 0 0 0 0 0 0 0 0 0 0 0 0 0 0 0 0 0 0 0 0 0 3 3 3 3 10 6 3
0 0 0 0 0 0 0 0 0 0 0 0 0 0 0 0 0 0 0 0 0 0 0 0 0 0 0 0 0 0 0 0 0 0 0 0 0 0 0 0 0 0 0 0 3 10 3 0 0
0 0 0 0 0 0 0 0 0 0 0 0 0 0 0 0 0 0 0 0 0 0 0 0 0 0 0 0 0 0 0 0 0 0 0 0 0 0 0 0 0 0 0 0 6 6 6 3 3
0 0 0 0 0 0 0 0 0 0 0 0 0 0 0 0 0 0 0 0 0 0 0 0 0 0 0 0 0 0 0 0 0 0 0 0 0 0 0 0 0 0 0 0 3 3 6 10 6
0 0 0 0 0 0 0 0 0 0 0 0 0 0 0 0 0 0 0 0 0 0 0 0 0 0 0 0 0 0 0 0 0 0 0 0 0 0 0 0 0 0 0 0 0 0 0 6 6
0 0 0 0 0 0 0 0 0 0 0 0 0 0 0 0 0 0 0 0 0 0 0 0 0 0 0 0 0 0 0 0 0 0 0 0 0 0 0 0 0 0 0 0 0 0 0 0 0

GEFSSGP_con_cape1000_066.txt.gz
Probability
97 100 100 100 97 77 0 0 0 0 0 0 0 0 0 0 0 13 16 48 39 68 81 94 100 97 94 90 87 84 84 87 84 87 87 97 100 94 94 94 87 87 90 90 90 94 94 97 97
100 100 100 97 81 0 0 0 0 0 0 0 0 0 0 0 3 3 39 48 55 65 81 84 94 94 94 84 74 74 71 84 87 87 87 94 94 97 94 97 94 90 84 87 87 87 87 87 90
100 100 100 100 16 0 0 0 0 0 0 0 0 0 0 0 0 6 26 32 45 68 77 84 90 90 87 81 77 77 84 77 71 77 87 87 90 90 97 90 90 81 81 81 81 87 81 81 84
100 100 97 77 0 0 0 0 0 0 0 0 0 0 3 10 10 10 16 26 35 42 58 68 81 81 74 68 61 65 68 71 61 65 77 77 94 100 97 90 87 74 74 74 74 81 71 74 71
100 100 87 6 0 0 0 0 0 0 0 0 0 0 10 10 19 23 23 16 16 23 32 35 45 42 39 48 35 45 45 48 52 52 65 65 71 81 90 90 84 77 74 71 71 58 65 68 68
100 100 52 0 0 0 0 0 0 0 0 0 0 0 6 16 29 32 23 13 6 3 10 10 29 19 23 26 26 29 32 26 39 58 55 58 65 71 74 77 87 87 77 71 74 65 48 55 65
100 97 26 0 3 0 0 0 0 0 0 0 0 0 6 19 19 13 16 13 3 6 6 6 6 13 19 19 16 19 26 23 26 26 32 42 58 58 65 77 84 81 81 74 74 65 55 58 58
100 94 0 0 0 0 3 0 0 3 0 0 0 10 13 10 13 13 13 6 6 3 0 0 3 6 6 6 13 16 16 23 23 19 23 19 29 42 58 58 77 84 77 77 71 71 61 61 61
94 74 6 0 3 0 0 0 0 0 0 0 0 6 3 3 10 10 10 10 6 3 3 3 0 0 0 0 6 13 13 19 23 19 16 19 10 19 39 35 52 52 65 74 81 68 71 68 74
90 81 0 6 3 13 3 0 0 0 0 0 0 0 3 3 0 0 0 0 0 0 0 0 0 0 0 0 0 0 3 10 13 3 10 19 19 13 3 19 32 35 55 65 81 74 74 68 26
55 16 10 3 6 3 0 0 0 0 0 3 3 0 0 0 0 0 0 0 0 0 0 0 0 0 0 0 0 0 0 3 0 6 10 16 19 16 13 10 13 19 29 35 55 71 45 23 6
29 16 0 3 0 0 0 0 0 0 0 3 3 0 0 0 0 0 0 0 0 0 0 0 0 0 0 0 0 0 0 3 6 10 6 3 16 3 3 10 10 16 19 13 16 19 10 10 3
23 19 10 3 3 0 0 0 0 0 0 0 0 0 0 0 0 0 0 0 0 0 0 0 0 0 0 0 0 0 0 0 0 3 3 3 6 3 3 3 10 10 16 10 13 10 3 3 0
16 16 10 3 3 0 0 0 0 0 0 0 0 0 0 0 0 0 0 0 0 0 0 0 0 0 0 0 0 0 0 0 0 0 0 0 0 0 3 6 6 10 10 6 3 3 0 6 3
16 10 10 6 3 0 0 0 0 0 0 0 0 0 0 0 0 0 0 0 0 0 0 0 0 0 0 0 0 0 0 0 0 0 3 0 0 0 0 3 3 6 10 6 3 3 3 3 0
0 6 3 10 3 3 0 0 0 0 0 0 0 0 0 0 0 0 0 0 0 0 0 0 0 0 0 0 0 0 0 0 0 0 0 0 0 0 0 0 3 6 6 6 6 3 3 3 0
3 0 0 0 3 0 0 0 0 0 0 0 0 0 0 0 0 0 0 0 0 0 0 0 0 0 0 0 0 0 0 0 0 0 0 0 0 0 0 3 6 6 10 6 3 6 3 0 0
0 0 0 0 0 0 0 0 0 0 0 0 0 0 0 0 0 0 0 0 0 0 0 0 0 0 0 0 0 0 0 0 0 0 0 0 0 0 0 0 3 3 6 6 6 3 3 0 0
0 0 0 0 0 0 0 0 0 0 0 0 0 0 0 0 0 0 0 0 0 0 0 0 0 0 0 0 0 0 0 0 0 0 0 0 0 0 0 3 3 3 3 6 6 0 0 0 0
0 0 0 0 0 0 0 0 0 0 0 0 0 0 0 0 0 0 0 0 0 0 0 0 0 0 0 0 0 0 0 0 0 0 0 0 0 0 0 0 0 0 3 3 3 3 0 0 0
0 0 0 0 0 0 0 0 0 0 0 0 0 0 0 0 0 0 0 0 0 0 0 0 0 0 0 0 0 0 0 0 0 0 0 0 0 0 0 0 0 0 0 0 0 0 0 3 0
0 0 0 0 0 0 0 0 0 0 0 0 0 0 0 0 0 0 0 0 0 0 0 0 0 0 0 0 0 0 0 0 0 0 0 0 0 0 0 0 0 0 0 0 0 0 0 0 0
0 0 0 0 0 0 0 0 0 0 0 0 0 0 0 0 0 0 0 0 0 0 0 0 0 0 0 0 0 0 0 0 0 0 0 0 0 0 0 0 0 0 0 0 0 0 0 0 0
0 0 0 0 0 0 0 0 0 0 0 0 0 0 0 0 0 0 0 0 0 0 0 0 0 0 0 0 0 0 0 0 0 0 0 0 0 0 0 0 0 0 0 0 0 0 0 0 0
0 0 0 0 0 0 0 0 0 0 0 0 0 0 0 0 0 0 0 0 0 0 0 0 0 0 0 0 0 0 0 0 0 0 0 0 0 0 0 0 0 0 0 0 0 0 0 0 0
0 0 0 0 0 0 0 0 0 0 0 0 0 0 0 0 0 0 0 0 0 0 0 0 0 0 0 0 0 0 0 0 0 0 0 0 0 0 0 0 0 0 0 0 0 0 0 0 0
0 0 0 0 0 0 0 0 0 0 0 0 0 0 0 0 0 0 0 0 0 0 0 0 0 0 0 0 0 0 0 0 0 0 0 0 0 0 0 0 0 0 0 0 0 0 0 0 0
0 0 0 0 0 0 0 0 0 0 0 0 0 0 0 0 0 0 0 0 0 0 0 0 0 0 0 0 0 0 0 0 0 0 0 0 0 0 0 0 0 0 0 0 0 0 0 0 0
0 0 0 0 0 0 0 0 0 0 0 0 0 0 0 0 0 0 0 0 0 0 0 0 0 0 0 0 0 0 0 0 0 0 0 0 0 0 0 0 0 0 0 0 0 0 0 0 0
0 0 0 0 0 0 0 0 0 0 0 0 0 0 0 0 0 0 0 0 0 0 0 0 0 0 0 0 0 0 0 0 0 0 0 0 0 0 0 0 0 0 0 0 0 0 0 0 0